Total_Precipitation_Accumulation
1.25 1.22 1.17 1.13 1.12 1.11 1.05 1.00 0.99 0.99 0.96 0.89 0.81 0.75 0.73 0.73 0.79 0.90 0.96 0.95 0.97 0.96 0.93 0.93 0.95 0.99 1.09 1.08 1.11 1.16 1.31 1.50 1.58 1.36 1.18 1.14 1.18 1.20 1.19 1.14 0.98 0.86 0.81
1.11 1.11 1.01 0.94 0.94 0.98 0.95 0.88 0.82 0.82 0.80 0.77 0.73 0.70 0.65 0.67 0.76 0.79 0.80 0.80 0.85 0.84 0.82 0.80 0.79 0.86 0.96 0.99 1.03 1.05 1.14 1.29 1.40 1.40 1.25 1.15 1.14 1.17 1.19 1.18 0.95 0.74 0.70
1.04 1.07 1.03 0.96 0.91 0.87 0.84 0.76 0.70 0.72 0.72 0.69 0.68 0.68 0.68 0.66 0.70 0.69 0.66 0.68 0.74 0.78 0.76 0.73 0.74 0.80 0.84 0.88 0.94 0.98 1.04 1.06 1.20 1.23 1.12 1.06 1.03 1.04 1.17 1.18 1.09 1.00 0.69
0.96 1.05 1.07 1.00 0.92 0.83 0.80 0.81 0.75 0.70 0.67 0.65 0.64 0.63 0.62 0.58 0.61 0.63 0.59 0.64 0.72 0.70 0.65 0.65 0.69 0.68 0.69 0.77 0.81 0.93 1.02 1.10 1.16 1.16 1.07 0.98 1.00 1.06 1.29 1.35 1.25 1.09 0.87
0.88 0.93 0.90 0.86 0.85 0.78 0.74 0.77 0.73 0.70 0.66 0.65 0.61 0.60 0.57 0.53 0.54 0.56 0.52 0.50 0.61 0.63 0.63 0.64 0.62 0.58 0.58 0.63 0.66 0.77 0.93 1.10 1.17 1.22 1.15 1.04 1.02 1.18 1.27 1.23 1.20 1.07 0.91
0.84 0.86 0.78 0.72 0.71 0.67 0.68 0.65 0.60 0.63 0.68 0.67 0.68 0.65 0.59 0.52 0.57 0.55 0.46 0.49 0.57 0.62 0.65 0.66 0.61 0.54 0.51 0.52 0.52 0.59 0.74 0.92 1.10 1.23 1.19 1.12 1.06 1.17 1.27 1.22 1.28 1.28 1.16
0.82 0.78 0.75 0.74 0.71 0.67 0.64 0.64 0.62 0.64 0.68 0.70 0.69 0.69 0.65 0.59 0.60 0.55 0.51 0.52 0.60 0.70 0.74 0.73 0.63 0.53 0.59 0.61 0.59 0.56 0.60 0.68 0.92 1.19 1.31 1.21 1.15 1.24 1.37 1.36 1.38 1.39 1.29
0.79 0.74 0.68 0.69 0.71 0.71 0.74 0.76 0.73 0.69 0.72 0.79 0.79 0.73 0.72 0.67 0.64 0.59 0.55 0.55 0.57 0.65 0.70 0.69 0.74 0.74 0.66 0.62 0.57 0.62 0.71 0.78 0.83 0.92 1.13 1.15 1.04 1.07 1.24 1.31 1.33 1.31 1.24
0.74 0.67 0.62 0.60 0.65 0.67 0.69 0.72 0.73 0.74 0.77 0.81 0.80 0.77 0.77 0.72 0.63 0.58 0.60 0.62 0.58 0.58 0.56 0.56 0.64 0.70 0.64 0.59 0.62 0.72 0.80 0.86 0.73 0.82 0.91 1.03 1.08 1.01 1.00 1.10 1.32 1.48 1.49
0.66 0.58 0.55 0.57 0.61 0.61 0.64 0.68 0.72 0.75 0.76 0.75 0.77 0.79 0.76 0.71 0.57 0.50 0.54 0.56 0.56 0.54 0.57 0.60 0.59 0.55 0.55 0.55 0.64 0.80 0.91 0.88 0.91 1.06 1.23 1.34 1.31 1.21 1.05 1.14 1.40 1.59 1.64
0.54 0.55 0.58 0.61 0.66 0.62 0.65 0.71 0.72 0.71 0.75 0.73 0.70 0.69 0.66 0.56 0.46 0.41 0.41 0.42 0.49 0.52 0.59 0.65 0.63 0.52 0.50 0.49 0.58 0.74 0.87 0.91 1.16 1.47 1.52 1.44 1.36 1.29 1.19 1.16 1.29 1.45 1.61
0.57 0.59 0.60 0.62 0.52 0.50 0.66 0.69 0.65 0.71 0.75 0.67 0.63 0.61 0.56 0.48 0.36 0.30 0.29 0.32 0.38 0.47 0.65 0.64 0.59 0.54 0.46 0.46 0.56 0.75 0.83 1.04 1.36 1.57 1.49 1.30 1.16 1.10 1.04 1.03 1.10 1.20 1.36
0.72 0.71 0.65 0.64 0.62 0.64 0.67 0.64 0.62 0.64 0.60 0.49 0.46 0.47 0.44 0.43 0.39 0.29 0.26 0.29 0.35 0.41 0.57 0.61 0.58 0.56 0.55 0.68 0.77 0.90 1.02 1.23 1.46 1.46 1.32 1.19 1.09 1.01 0.93 0.95 0.97 1.03 1.04
0.80 0.73 0.68 0.69 0.72 0.69 0.62 0.51 0.49 0.46 0.44 0.43 0.40 0.39 0.38 0.37 0.31 0.25 0.25 0.29 0.35 0.40 0.51 0.66 0.75 0.79 0.82 0.92 1.02 1.12 1.22 1.32 1.30 1.22 1.10 1.04 0.96 0.95 0.92 0.92 0.95 0.97 1.02
0.81 0.75 0.68 0.60 0.59 0.59 0.46 0.35 0.35 0.33 0.30 0.36 0.38 0.35 0.35 0.32 0.24 0.24 0.25 0.26 0.34 0.41 0.48 0.69 0.90 0.98 1.05 1.10 1.09 1.14 1.20 1.17 1.14 1.10 1.03 0.94 0.90 0.90 0.92 0.91 0.96 0.93 0.97
0.73 0.68 0.58 0.47 0.43 0.38 0.34 0.33 0.28 0.24 0.26 0.29 0.33 0.30 0.24 0.23 0.20 0.20 0.25 0.29 0.36 0.47 0.55 0.79 0.99 1.04 1.07 1.10 1.06 1.07 1.09 1.05 0.99 0.98 0.99 0.94 0.91 0.90 0.92 0.95 1.00 0.99 1.01
0.63 0.56 0.43 0.33 0.30 0.29 0.30 0.39 0.42 0.32 0.26 0.27 0.26 0.25 0.24 0.23 0.22 0.22 0.26 0.33 0.39 0.47 0.57 0.79 0.98 1.14 1.17 1.08 1.00 0.97 1.01 1.02 0.98 0.95 0.94 0.93 0.89 0.87 0.90 0.93 0.94 0.92 0.94
0.46 0.37 0.30 0.27 0.23 0.21 0.21 0.29 0.43 0.47 0.43 0.40 0.35 0.28 0.26 0.26 0.26 0.24 0.27 0.32 0.43 0.50 0.63 0.80 0.94 1.02 1.06 1.05 0.97 0.94 0.94 0.95 0.95 0.93 0.89 0.89 0.86 0.84 0.83 0.86 0.87 0.81 0.80
0.35 0.28 0.25 0.21 0.19 0.18 0.18 0.23 0.31 0.35 0.40 0.44 0.43 0.34 0.30 0.29 0.32 0.32 0.30 0.34 0.45 0.54 0.64 0.73 0.81 0.82 0.81 0.82 0.81 0.80 0.81 0.84 0.84 0.81 0.81 0.83 0.84 0.81 0.80 0.77 0.73 0.66 0.68
0.27 0.20 0.19 0.15 0.14 0.15 0.16 0.21 0.28 0.30 0.33 0.39 0.40 0.35 0.31 0.36 0.43 0.43 0.39 0.38 0.40 0.46 0.55 0.63 0.69 0.66 0.64 0.64 0.62 0.61 0.62 0.64 0.64 0.63 0.65 0.67 0.70 0.71 0.69 0.66 0.63 0.63 0.68
0.17 0.17 0.15 0.12 0.12 0.14 0.15 0.21 0.26 0.26 0.26 0.33 0.33 0.27 0.30 0.36 0.45 0.49 0.51 0.50 0.49 0.47 0.48 0.50 0.55 0.59 0.58 0.56 0.53 0.50 0.50 0.51 0.50 0.53 0.56 0.61 0.64 0.63 0.59 0.56 0.55 0.55 0.59
0.16 0.16 0.11 0.10 0.11 0.13 0.16 0.18 0.20 0.20 0.21 0.23 0.22 0.20 0.26 0.30 0.38 0.41 0.49 0.56 0.57 0.53 0.49 0.48 0.50 0.54 0.59 0.58 0.52 0.48 0.47 0.47 0.46 0.50 0.55 0.58 0.58 0.53 0.49 0.48 0.48 0.52 0.54
0.13 0.15 0.11 0.08 0.10 0.14 0.17 0.19 0.19 0.18 0.19 0.19 0.18 0.19 0.22 0.30 0.33 0.36 0.43 0.50 0.54 0.54 0.50 0.47 0.50 0.54 0.55 0.56 0.52 0.45 0.41 0.39 0.39 0.42 0.50 0.53 0.52 0.49 0.46 0.47 0.47 0.49 0.53
0.11 0.14 0.11 0.10 0.11 0.12 0.16 0.17 0.15 0.14 0.15 0.14 0.15 0.18 0.22 0.28 0.31 0.34 0.39 0.44 0.49 0.52 0.50 0.49 0.49 0.48 0.47 0.48 0.44 0.35 0.31 0.31 0.30 0.32 0.39 0.45 0.46 0.43 0.42 0.43 0.44 0.44 0.46
0.09 0.12 0.11 0.11 0.11 0.12 0.14 0.15 0.12 0.11 0.11 0.11 0.13 0.16 0.18 0.21 0.26 0.28 0.32 0.37 0.42 0.46 0.46 0.44 0.44 0.40 0.37 0.37 0.35 0.29 0.28 0.29 0.29 0.30 0.34 0.38 0.38 0.40 0.42 0.42 0.40 0.40 0.42
0.09 0.12 0.12 0.13 0.16 0.16 0.15 0.13 0.11 0.11 0.11 0.12 0.13 0.14 0.14 0.17 0.21 0.24 0.26 0.28 0.33 0.39 0.41 0.41 0.38 0.35 0.31 0.28 0.29 0.29 0.29 0.27 0.27 0.29 0.33 0.38 0.40 0.41 0.42 0.42 0.38 0.40 0.44